This is the latest recevied weather packets stored in our database for station/object KE8RXN. If no packets are shown the sender has not sent any weather packets the latest 10 day(s).
| Time | Temp. | Humidity | Pressure | Rain* | Wind** | Luminosity | Snow |
|---|---|---|---|---|---|---|---|
| 1777128674 | 13.33° C | 73% | 1017.9 hPa | 0 mm | - | 715 W/m² | - |
| 1777128373 | 12.78° C | 75% | 1017.9 hPa | 0 mm | - | 716 W/m² | - |
| 1777128069 | 13.89° C | 73% | 1018 hPa | 0 mm | - | 719 W/m² | - |
| 1777127767 | 13.33° C | 75% | 1017.7 hPa | 0 mm | - | 682 W/m² | - |
| 1777127463 | 12.78° C | 77% | 1017.8 hPa | 0 mm | - | 644 W/m² | - |
| 1777127160 | 11.67° C | 78% | 1017.7 hPa | 0 mm | - | 619 W/m² | - |
| 1777126855 | 12.22° C | 78% | 1017.6 hPa | 0 mm | - | 227 W/m² | - |
| 1777126552 | 12.78° C | 77% | 1017.9 hPa | 0 mm | - | 690 W/m² | - |
| 1777126248 | 12.22° C | 78% | 1017.8 hPa | 0 mm | - | 548 W/m² | - |
| 1777125944 | 11.67° C | 78% | 1017.9 hPa | 0 mm | - | 488 W/m² | - |
| 1777125640 | 11.67° C | 79% | 1017.7 hPa | 0 mm | - | 494 W/m² | - |
| 1777125337 | 11.67° C | 78% | 1017.8 hPa | 0 mm | - | 171 W/m² | - |
| 1777125037 | 11.67° C | 79% | 1017.9 hPa | 0 mm | - | 540 W/m² | - |
| 1777124733 | 11.11° C | 81% | 1017.8 hPa | 0 mm | - | 396 W/m² | - |
| 1777124429 | 11.11° C | 82% | 1018 hPa | 0 mm | - | 208 W/m² | - |
| 1777124126 | 10.56° C | 83% | 1017.9 hPa | 0 mm | - | 205 W/m² | - |
| 1777123823 | 10.56° C | 83% | 1017.8 hPa | 0 mm | - | 236 W/m² | - |
| 1777123519 | 10.56° C | 84% | 1017.9 hPa | 0 mm | - | 284 W/m² | - |
| 1777123215 | 10.56° C | 84% | 1017.8 hPa | 0 mm | - | 165 W/m² | - |
| 1777122911 | 10.56° C | 84% | 1017.7 hPa | 0 mm | - | 143 W/m² | - |
| 1777122608 | 10.56° C | 85% | 1017.8 hPa | 0 mm | - | 165 W/m² | - |
| 1777122303 | 10.56° C | 85% | 1017.5 hPa | 0 mm | - | 209 W/m² | - |
| 1777122000 | 10.56° C | 85% | 1017.7 hPa | 0 mm | - | 274 W/m² | - |
| 1777121695 | 10° C | 86% | 1017.6 hPa | 0 mm | - | 289 W/m² | - |
| 1777121393 | 10° C | 86% | 1017.5 hPa | 0 mm | - | 140 W/m² | - |
* Rain latest hour (hover to see other rain measurements)
** Current wind speed in m/s (hover to see current wind gust speed)